Location: Tierra del Sol
(32.6128°N, 116.3319°W)
Time: 02:17:57
(UTC-07:00)

Tiangong 1 - Pass Details

Date: 07 October 2017
Orbit: 293 x 320 km, 42.8° (Epoch: 19 October)

Event Time Altitude Azimuth Distance (km) Brightness Sun altitude
Rises 18:48:45 0° 272° (W) 2,037 7.3 -6.5°
Reaches altitude 10° 18:51:05 10° 292° (WNW) 1,203 4.8 -7.0°
Maximum altitude 18:53:06 19° 341° (NNW) 834 3.0 -7.4°
Drops below altitude 10° 18:55:06 10° 30° (NNE) 1,193 3.2 -7.8°
Enters shadow 18:56:13 - 42° (NE) 1,568 3.7 -8.1°
